Flag for United Kingdom Weather past 2 weeks in Portsmouth, England, United Kingdom

Now
57 °F

Passing clouds.


Feels Like: 55 °F
Forecast: 50 / 58 °F
Wind: 10 mph from Northwest

Location: Southampton / Weather Centre

Current Time: May 28, 2015 at 7:40:45 PM

Latest Report: May 28, 2015 at 7:20 PM


Visibility: N/A

Pressure: 29.98 "Hg

Humidity: 48%

Dew point: 37 °F

Location of PortsmouthLocation

Historic Weather in Portsmouth — Graph

°F

Portsmouth temperature yesterday

Maximum temperature yesterday: 61 °F (at 12:20 PM)
Minimum temperature yesterday: 41 °F (at 5:50 AM)
Average temperature yesterday: 56 °F

Past Weeks' High & Low Weather Summary

 TemperatureHumidityPressure
High66 °F (May 23, 2:50 PM)94% (May 18, 7:20 AM)30.36 "Hg (May 18, 7:20 AM)
Low36 °F (May 20, 5:50 AM)40% (May 21, 1:50 PM)29.65 "Hg (May 18, 11:50 AM)
Average55 °F68%30.10 "Hg
* Reported May 13 6:20 PM — May 28 6:20 PM, Portsmouth, Weather by CustomWeather, © 2015

Note: Actual official high and low records may vary slightly from our data, if they occured in-between our weather recording intervals... More about our weather records

Advertising

Portsmouth weather history for previous 24 hours

 ConditionsComfort  
Time TempWeatherWind HumidityBarometerVisibility
6:20 PM
Thu, May 28
57 °FPassing clouds.12 mph51%29.98 "HgN/A
5:50 PM59 °FScattered clouds.10 mph48%29.98 "HgN/A
5:20 PM59 °FScattered clouds.13 mph48%29.98 "HgN/A
4:50 PM59 °FScattered clouds.13 mph48%29.98 "HgN/A
4:20 PM61 °FScattered clouds.10 mph45%29.98 "HgN/A
3:50 PM59 °FScattered clouds.10 mph45%29.98 "HgN/A
3:20 PM59 °FScattered clouds.12 mph45%30.01 "HgN/A
2:50 PM59 °FPassing clouds.13 mph45%30.01 "HgN/A
2:20 PM59 °FPassing clouds.15 mph42%30.01 "HgN/A
1:50 PM59 °FPassing clouds.15 mph45%30.01 "HgN/A
1:20 PM59 °FPassing clouds.17 mph45%30.01 "HgN/A
12:50 PM59 °FPassing clouds.14 mph45%30.01 "HgN/A
12:20 PM57 °FPassing clouds.14 mph48%30.01 "HgN/A
11:50 AM57 °FPassing clouds.15 mph51%30.01 "HgN/A
11:20 AM55 °FScattered clouds.14 mph51%30.01 "HgN/A
10:50 AM55 °FPassing clouds.13 mph51%30.01 "HgN/A
10:20 AM55 °FPassing clouds.13 mph51%30.01 "HgN/A
9:50 AM55 °FPassing clouds.16 mph51%30.01 "HgN/A
9:20 AM55 °FPassing clouds.13 mph51%30.01 "HgN/A
8:50 AM55 °FScattered clouds.12 mph55%30.01 "HgN/A
8:20 AM54 °FScattered clouds.12 mph63%30.01 "HgN/A
7:50 AM54 °FPassing clouds.12 mph67%30.01 "HgN/A
7:20 AM54 °FPassing clouds.10 mph72%29.98 "HgN/A
6:50 AM52 °FPassing clouds.9 mph77%29.98 "HgN/A
6:20 AM52 °FPassing clouds.7 mph82%29.98 "HgN/A
5:50 AM52 °FPassing clouds.6 mph82%29.98 "HgN/A
10:50 PM
Wed, May 27
55 °FPassing clouds.6 mph82%30.04 "HgN/A
10:20 PM55 °FPassing clouds.6 mph82%30.04 "HgN/A
9:50 PM54 °FPassing clouds.9 mph88%30.07 "HgN/A
9:20 PM54 °FLight rain. Passing clouds.9 mph88%30.07 "HgN/A
8:50 PM55 °FLight rain. Scattered clouds.10 mph77%30.07 "HgN/A
8:20 PM57 °FPassing clouds.9 mph63%30.07 "HgN/A
7:50 PM55 °FPassing clouds.12 mph72%30.07 "HgN/A
7:20 PM57 °FPassing clouds.12 mph67%30.09 "HgN/A
Weather by CustomWeather, © 2015

See weather overviewHow to use our weather pages